METOP-C (43689 NORAD) Tracking and Keplerian Element Data

This shows tracking and keplerian element data for the satellite.

Feedback or suggestion? Click here.




ElementValue
Catalog43689
NameMETOP-C
Epoch Orbit157
Epoch Day322.12224967
Epoch Year2018
RAAN19.3509
Inclination98.7352
Eccentricity0.0002258
Argument of Perigee110.1421
Mean Anonmoly223.5016
Mean Motion14.22878316
Decay Rate-4.4E-07
L11 43689U 18087A 18322.12224967 -.00000044 00000-0 00000+0 0 9991
L22 43689 98.7352 19.3509 0002258 110.1421 223.5016 14.22878316 1574

Live tracking and technical data element details for METOP-C (NORAD 43689). METOP-C can be tracked NOW for your location showing map with azimuth and elevation plus other details from your city location.

Track the satellite on the map from your city or location and see movement details for azimuth, elevation, latitude, longitude, range, height, and movement on the map or in text.







IsCatalogInMostPopularTable: catalog: 43689, numindb: 15
Update: records affected: 1



GetName: 43689 METOP-C

Hit Count: updated at: Tue, 20 Nov 2018 11:36:01 GMT